Flag for Germany Weather past 2 weeks in Wiehl, North Rhine-Westphalia, Germany

Now
45 °F

Scattered clouds.


Feels Like: 38 °F
Forecast: 32 / 43 °F
Wind: 15 mph from West

Location: Koeln / Bonn

Current Time: Mar 4, 2015 at 12:34:24 PM

Latest Report: Mar 4, 2015 at 12:20 PM


Visibility: N/A

Pressure: 30.27 "Hg

Humidity: 71%

Dew point: 36 °F

Location of WiehlLocation

Historic Weather in Wiehl — Graph

°F

Wiehl temperature yesterday

Maximum temperature yesterday: 50 °F (at 2:50 PM)
Minimum temperature yesterday: 34 °F (at 5:20 AM)
Average temperature yesterday: 40 °F

Past Weeks' High & Low Weather Summary

 TemperatureHumidityPressure
High54 °F (Mar 1, 1:20 PM)100% (Feb 17, 8:20 PM)30.77 "Hg (Feb 17, 8:20 PM)
Low28 °F (Feb 28, 4:20 AM)40% (Feb 28, 3:50 PM)29.39 "Hg (Feb 21, 4:20 AM)
Average40 °F79%29.96 "Hg
* Reported Feb 17 11:20 AM — Mar 4 11:20 AM, Wiehl, Weather by CustomWeather, © 2015

Note: Actual official high and low records may vary slightly from our data, if they occured in-between our weather recording intervals... More about our weather records

Advertising

Wiehl weather history for previous 24 hours

 ConditionsComfort  
Time TempWeatherWind HumidityBarometerVisibility
11:20 AM
Wed, Mar 4
43 °FPartly sunny.14 mph71%30.27 "HgN/A
10:50 AM41 °FPartly sunny.14 mph76%30.27 "HgN/A
10:20 AM39 °FPartly sunny.13 mph81%30.24 "HgN/A
9:50 AM39 °FPartly sunny.13 mph75%30.24 "HgN/A
9:20 AM39 °FPassing clouds.12 mph75%30.24 "HgN/A
8:50 AM36 °FPassing clouds.8 mph87%30.24 "HgN/A
8:20 AM36 °FScattered clouds.7 mph81%30.24 "HgN/A
7:50 AM36 °FScattered clouds.6 mph81%30.21 "HgN/A
7:20 AM36 °FSunny.9 mph81%30.21 "Hg10 mi
6:50 AM36 °FClear.8 mph81%30.18 "Hg10 mi
6:20 AM34 °FClear.9 mph87%30.18 "Hg10 mi
5:50 AM34 °FClear.8 mph93%30.18 "Hg10 mi
5:20 AM36 °FClear.8 mph87%30.18 "Hg10 mi
4:50 AM36 °FClear.10 mph87%30.18 "Hg10 mi
4:20 AM36 °FPassing clouds.9 mph87%30.15 "HgN/A
3:50 AM36 °FPassing clouds.9 mph81%30.15 "HgN/A
3:20 AM36 °FClear.9 mph81%30.15 "Hg10 mi
2:50 AM36 °FClear.9 mph81%30.15 "Hg10 mi
2:20 AM36 °FClear.7 mph81%30.15 "Hg10 mi
1:50 AM37 °FClear.12 mph81%30.12 "Hg10 mi
1:20 AM36 °FPassing clouds.7 mph93%30.12 "HgN/A
12:50 AM36 °FPassing clouds.7 mph87%30.12 "HgN/A
12:20 AM37 °FPassing clouds.9 mph87%30.12 "HgN/A
11:50 PM
Tue, Mar 3
37 °FScattered showers. Passing clouds.10 mph87%30.09 "HgN/A
11:20 PM37 °FSprinkles. Partly cloudy.9 mph87%30.09 "HgN/A
10:50 PM37 °FLight rain. Partly cloudy.8 mph87%30.09 "HgN/A
10:20 PM39 °FPartly cloudy.13 mph81%30.09 "HgN/A
9:50 PM39 °FSprinkles. Partly cloudy.15 mph81%30.07 "HgN/A
9:20 PM39 °FScattered showers. Passing clouds.13 mph87%30.07 "HgN/A
8:50 PM39 °FScattered showers. Passing clouds.13 mph87%30.04 "HgN/A
8:20 PM41 °FSprinkles. Partly cloudy.14 mph87%30.04 "HgN/A
7:50 PM39 °FPassing clouds.8 mph87%30.04 "HgN/A
7:20 PM39 °FSprinkles. Passing clouds.6 mph93%30.04 "HgN/A
6:50 PM39 °FPassing clouds.6 mph93%30.01 "HgN/A
6:20 PM39 °FSprinkles. Passing clouds.7 mph93%30.01 "HgN/A
5:50 PM43 °FRain showers. Broken clouds.22 mph81%30.01 "HgN/A
5:20 PM45 °FScattered showers. Partly sunny.12 mph76%29.98 "HgN/A
4:50 PM43 °FSprinkles. Partly sunny.14 mph81%30.01 "HgN/A
4:20 PM45 °FLight rain. Partly sunny.23 mph71%30.01 "HgN/A
3:50 PM48 °FLight rain. Partly sunny.13 mph54%29.98 "HgN/A
3:20 PM48 °FPartly sunny.22 mph50%29.98 "HgN/A
2:50 PM50 °FPartly sunny.17 mph47%29.98 "HgN/A
2:20 PM48 °FBroken clouds.17 mph50%30.01 "HgN/A
1:50 PM48 °FBroken clouds.16 mph50%30.01 "HgN/A
1:20 PM48 °FBroken clouds.18 mph50%30.04 "HgN/A
12:50 PM46 °FBroken clouds.15 mph57%30.04 "HgN/A
12:20 PM45 °FBroken clouds.12 mph61%30.07 "HgN/A
Weather by CustomWeather, © 2015

See weather overviewHow to use our weather pages